Location: Aldenham
(51.6667°N, 0.3500°W)
Time: 18:30:07
(UTC+00:00)

Explorer 7 - Pass Details

Date: 14 February 2026
Orbit: 430 x 542 km, 50.2° (Epoch: 8 March)

Event Time Altitude Azimuth Distance (km) Brightness Sun altitude
Rises 21:24:31 0° 281° (W) 2,575 11.1 -38.1°
Enters shadow 21:25:39 - 277° (W) 2,137 10.5 -38.3°
Reaches altitude 10° 21:26:47 10° 272° (W) 1,712 - -38.4°
Maximum altitude 21:30:21 35° 206° (SSW) 850 - -38.9°
Drops below altitude 10° 21:34:01 10° 140° (SE) 1,765 - -39.4°
Sets 21:36:23 0° 131° (SE) 2,668 - -39.7°
